Overview Statistics Trail Chart Weather Telemetry Raw packets
 

This is the latest recevied weather packets stored in our database for station/object SV1JSO-13. If no packets are shown the sender has not sent any weather packets the latest 10 day(s).

<< 89 90 91 92 93 94 95 >>
Time Temp. Humidity Pressure Rain* Wind** Luminosity Snow
1788004803 28.89° C 47% 1010.3 hPa 0 mm - 611 W/m² -
1788004501 29.44° C 44% 1010.2 hPa 0 mm - 620 W/m² -
1788004200 30° C 43% 1010.4 hPa 0 mm - 625 W/m² -
1788003900 31.11° C 35% 1010.4 hPa 0 mm - 631 W/m² -
1788003600 30.56° C 36% 1010.3 hPa 0 mm - 634 W/m² -
1788003300 30.56° C 36% 1010.4 hPa 0 mm - 646 W/m² -
1788003000 30.56° C 35% 1010.5 hPa 0 mm - 652 W/m² -
1788002700 30° C 36% 1010.5 hPa 0 mm - 656 W/m² -
1788002400 29.44° C 37% 1010.5 hPa 0 mm - 648 W/m² -
1788002100 30.56° C 36% 1010.5 hPa 0 mm - 646 W/m² -
1788001800 30° C 36% 1010.4 hPa 0 mm - 650 W/m² -
1788001500 30° C 37% 1010.6 hPa 0 mm - 660 W/m² -
1788001200 30° C 36% 1010.5 hPa 0 mm - 666 W/m² -
1788000900 30° C 36% 1010.5 hPa 0 mm - 661 W/m² -
1788000600 30° C 36% 1010.5 hPa 0 mm - 653 W/m² -
1788000300 30° C 36% 1010.4 hPa 0 mm - 671 W/m² -
1788000000 29.44° C 37% 1010.6 hPa 0 mm - 695 W/m² -
1787999701 29.44° C 37% 1010.6 hPa 0 mm - 679 W/m² -
1787999400 29.44° C 37% 1010.6 hPa 0 mm - 652 W/m² -
1787999100 30° C 36% 1010.5 hPa 0 mm - 651 W/m² -
1787998800 29.44° C 37% 1010.6 hPa 0 mm - 638 W/m² -
1787998500 29.44° C 37% 1010.7 hPa 0 mm - 630 W/m² -
1787998200 29.44° C 37% 1010.8 hPa 0 mm - 640 W/m² -
1787997900 29.44° C 37% 1011 hPa 0 mm - 646 W/m² -
1787997600 29.44° C 37% 1010.9 hPa 0 mm - 611 W/m² -

* Rain latest hour (hover to see other rain measurements)
** Current wind speed in m/s (hover to see current wind gust speed)